Weather History for Kodiak, AK

Change the Weather History Date:

Wednesday, January 2, 2013

  Actual Average Record
Temperature  
Mean Temperature 36 °F 31 °F  
Max Temperature 39 °F 36 °F 48 °F (1950)
Min Temperature 32 °F 26 °F 5 °F (1969)
Degree Days  
Heating Degree Days 29 34  
Month to date heating degree days 57 68  
Since 1 July heating degree days 4096 3909  
Cooling Degree Days 0    
Month to date cooling degree days 0  
Year to date cooling degree days 0  
Moisture  
Dew Point 33 °F    
Average Humidity 0    
Maximum Humidity 0    
Minimum Humidity 0    
Precipitation  
Precipitation 0.35 in 0.29 in 2.30 in (1971)
Month to date precipitation 0.96 0.57  
Year to date precipitation 0.96 0.57  
Snow  
Snow T in 0.30 in 6.00 in (1971)
Month to date snowfall T 0.7  
Since 1 July snowfall 16.4 22.0  
Snow Depth 0.00 in    
Sea Level Pressure  
Sea Level Pressure 29.28 in    
Wind  
Wind Speed 14 mph (SE)    
Max Wind Speed 37 mph    
Max Gust Speed 43 mph    
Visibility 8 miles    
Events Rain , Snow    
T = Trace of Precipitation, MM = Missing Value Source: NWS Daily Summary

Daily Weather History Graph

Daily Weather History Graph

Search for Another Location

Airport:

Trip Planner

Search our weather history database for the weather conditions in past years. The results will help you decide how hot, cold, wet, or windy it might be!

Date:

Astronomy

Jan. 02, 2013 Rise Set
Actual Time 9:52 AM AKST 4:35 PM AKST
Civil Twilight 9:02 AM AKST 5:26 PM AKST
Nautical Twilight 8:10 AM AKST 6:17 PM AKST
Astronomical Twilight 7:23 AM AKST 7:05 PM AKST
Moon 11:42 PM AKST (1/2) 11:23 AM AKST (1/2)
Length of Visible Light 8h 23m
Length of Day
6h 43m
Waning Gibbous, 74% of the Moon is Illuminated
Jan 2
Waning Gibbous
Jan 4
Last Quarter
Jan 11
New
Jan 18
First Quarter
Jan 26
Full

Hourly Weather History & Observations

Time (AKST) Temp. Windchill Dew Point Humidity Pressure Visibility Wind Dir Wind Speed Gust Speed Precip Events Conditions
12:07 AM 35.6 °F - 30.2 °F 81% 29.24 in 10.0 mi Calm Calm - N/A   Overcast
12:38 AM 35.6 °F - 30.2 °F 81% 29.25 in 10.0 mi Calm Calm - N/A   Mostly Cloudy
12:53 AM 35.1 °F - 30.9 °F 85% 29.26 in 10.0 mi Calm Calm - N/A   Mostly Cloudy
1:53 AM 35.1 °F 32.2 °F 32.0 °F 89% 29.28 in 10.0 mi South 3.5 mph - N/A   Overcast
3:53 AM 34.0 °F - 30.0 °F 85% 29.31 in 10.0 mi Calm Calm - N/A   Scattered Clouds
4:53 AM 35.1 °F 27.4 °F 32.0 °F 89% 29.31 in 10.0 mi SSE 10.4 mph 17.3 mph 0.00 in Rain Light Rain
5:14 AM 33.8 °F 29.6 °F 30.2 °F 87% 29.31 in 10.0 mi South 4.6 mph - 0.00 in   Mostly Cloudy
5:49 AM 33.8 °F 27.7 °F 32.0 °F 93% 29.31 in 7.0 mi SE 6.9 mph - 0.00 in Snow Light Snow
5:53 AM 35.1 °F 29.3 °F 33.1 °F 92% 29.31 in 9.0 mi SE 6.9 mph - 0.00 in Snow Light Snow
6:13 AM 35.6 °F 28.6 °F 32.0 °F 87% 29.31 in 10.0 mi SSE 9.2 mph - 0.00 in Rain Light Rain
6:53 AM 34.0 °F 26.0 °F 32.0 °F 92% 29.32 in 8.0 mi SE 10.4 mph - 0.00 in Snow Light Snow
7:02 AM 33.8 °F 28.6 °F 32.0 °F 93% 29.32 in 8.0 mi SE 5.8 mph - 0.00 in Snow Light Snow
7:19 AM 35.6 °F 29.2 °F 32.0 °F 87% 29.32 in 10.0 mi SSE 8.1 mph - 0.00 in   Mostly Cloudy
7:53 AM 35.1 °F 27.4 °F 30.9 °F 85% 29.31 in 10.0 mi SE 10.4 mph - 0.01 in Rain , Snow Light Rain
8:14 AM 35.6 °F 27.5 °F 30.2 °F 81% 29.32 in 3.0 mi SSE 11.5 mph - 0.00 in Rain , Snow Light Rain
8:25 AM 33.8 °F 27.7 °F 32.0 °F 93% 29.32 in 4.0 mi SE 6.9 mph - 0.02 in Snow Light Snow
8:53 AM 35.1 °F 26.4 °F 32.0 °F 89% 29.32 in 6.0 mi ESE 12.7 mph - 0.02 in Rain , Snow Light Rain
9:26 AM 33.8 °F 25.8 °F 32.0 °F 93% 29.33 in 2.0 mi SE 10.4 mph - 0.00 in Rain , Snow Light Rain
9:33 AM 33.8 °F 25.8 °F 32.0 °F 93% 29.33 in 7.0 mi SE 10.4 mph - 0.00 in Rain , Snow Light Rain
9:53 AM 34.0 °F 27.2 °F 33.1 °F 96% 29.34 in 7.0 mi ESE 8.1 mph - 0.00 in Rain , Snow Light Rain
10:53 AM 36.0 °F 29.0 °F 33.1 °F 89% 29.34 in 7.0 mi SE 9.2 mph - 0.02 in Rain , Snow Light Rain
11:53 AM 35.1 °F 25.9 °F 34.0 °F 96% 29.33 in 5.0 mi ESE 13.8 mph - 0.01 in Rain Light Rain
12:53 PM 37.0 °F 27.7 °F 34.0 °F 89% 29.31 in 10.0 mi SE 16.1 mph 31.1 mph 0.00 in Rain Light Rain
1:53 PM 37.9 °F 27.1 °F 35.1 °F 89% 29.30 in 7.0 mi ESE 23.0 mph 27.6 mph 0.02 in Rain Light Rain
2:37 PM 37.4 °F 27.8 °F 35.6 °F 93% 29.28 in 7.0 mi ESE 17.3 mph 28.8 mph 0.02 in Rain Light Rain
2:53 PM 37.9 °F 27.9 °F 36.0 °F 93% 29.28 in 7.0 mi ESE 19.6 mph 26.5 mph 0.02 in Rain Light Rain
3:53 PM 37.9 °F 26.6 °F 36.0 °F 93% 29.26 in 9.0 mi East 25.3 mph - 0.00 in Rain Light Rain
4:53 PM 37.9 °F 25.9 °F 36.0 °F 93% 29.24 in 4.0 mi East 28.8 mph - 0.04 in Rain Light Rain
5:53 PM 37.9 °F 25.1 °F 36.0 °F 93% 29.23 in 6.0 mi ESE 33.4 mph 39.1 mph 0.06 in Rain Rain
6:53 PM 37.9 °F 26.1 °F 37.0 °F 97% 29.20 in 4.0 mi East 27.6 mph 39.1 mph 0.06 in Rain Light Rain
7:53 PM 37.9 °F 27.1 °F 37.0 °F 97% 29.19 in 5.0 mi ESE 23.0 mph - 0.05 in Rain Rain
8:44 PM 37.4 °F 30.8 °F 35.6 °F 93% 29.21 in 10.0 mi SSE 9.2 mph - 0.03 in Rain Light Rain
8:53 PM 37.9 °F 28.9 °F 34.0 °F 86% 29.22 in 10.0 mi SSE 16.1 mph 26.5 mph 0.03 in   Overcast
9:18 PM 37.4 °F 27.2 °F 33.8 °F 87% 29.23 in 9.0 mi SSE 19.6 mph 27.6 mph 0.00 in Rain Light Rain
9:53 PM 37.0 °F 28.9 °F 33.1 °F 86% 29.25 in 10.0 mi SSE 12.7 mph - 0.00 in   Mostly Cloudy
10:27 PM 37.4 °F 28.9 °F 33.8 °F 87% 29.26 in 10.0 mi SE 13.8 mph - 0.01 in Rain Light Rain
10:48 PM 37.4 °F 30.3 °F 32.0 °F 81% 29.27 in 10.0 mi SSE 10.4 mph - 0.01 in   Overcast
10:53 PM 37.0 °F 27.7 °F 32.0 °F 82% 29.28 in 10.0 mi SSE 16.1 mph 24.2 mph 0.01 in   Overcast
11:53 PM 37.0 °F 31.0 °F 30.9 °F 79% 29.31 in 10.0 mi SE 8.1 mph - N/A   Scattered Clouds